[[{"header":{"parameterUnit":"m.s-1","parameterCategory":1,"la1":30.2991,"la2":30.254,"lo1":-89.0895,"lo2":-89.0444,"dy":0.0017,"dx":0.0017,"nx":28,"ny":28,"refTime":"2025-07-23T03:00:00:Z","depth":0,"parameterNumber":2,"parameterNumberName":"U-component_of_WINDS"},"data":[0,0,0,0,0,0,0,0,0,0,0,0,0,0,0,0,0,0,0,0,0,0,0,0,0,0,0,0,0,0,0,0,0,0,0,0,0,0,0,0,0,0,0,0,0,0,0,0,0,0,0,0,0,0,0,0,0,0,0.4417,0.4416,0,0.4362,0.4361,0.436,0.4321,0.432,0.432,0.432,0.4264,0.4263,0.4262,0,0,0,0,0,0,0,0,0,0,0,0,0,0.4488,0.4486,0.4417,0.4416,0.4415,0.4362,0.4361,0.436,0.4321,0.432,0.432,0.432,0.4264,0.4263,0.4261,0,0,0,0,0,0,0,0,0,0,0,0,0,0.4447,0.4486,0.4417,0.4389,0.4386,0.4362,0.4361,0.436,0.4321,0.432,0.432,0.4319,0.4265,0.4263,0.4261,0.426,0,0,0.4256,0.4255,0,0,0,0,0,0,0,0,0.4449,0.4445,0.4394,0.4391,0.4388,0.4348,0.4365,0.4327,0.4321,0.4346,0.432,0.4319,0.4292,0.4288,0.4279,0.4258,0.4255,0.4256,0.4255,0.4254,0.4253,0,0,0,0,0,0,0,0.4452,0.4447,0.4395,0.4393,0.4389,0.438,0.4373,0.4358,0.4322,0.4343,0.434,0.4335,0.429,0.4281,0.4277,0.4254,0.4256,0.4254,0.4253,0.4252,0.4229,0.423,0,0,0,0,0,0,0.4459,0.4449,0.4397,0.4393,0.4418,0.4379,0.4372,0.4361,0.4322,0.4316,0.4335,0.4333,0.4284,0.4279,0.4275,0.4271,0.4254,0.4252,0.4251,0.4229,0.4229,0.423,0,0,0,0,0,0,0.4461,0.4455,0.4399,0.442,0.4412,0.4378,0.4366,0.436,0.435,0.4316,0.4309,0.4332,0.4283,0.4278,0.4264,0.4269,0.4251,0.425,0.4228,0.4229,0.423,0.4263,0,0,0,0,0,0,0.4463,0.4456,0.4455,0.4421,0.4412,0.4389,0.4367,0.4359,0.4347,0.4344,0.4311,0.4305,0.4283,0.4267,0.4262,0.4266,0.4248,0.4228,0.4229,0.4229,0.4262,0.4265,0.4268,0,0,0,0,0,0.4466,0.4467,0.4455,0.4449,0.441,0.4389,0.4384,0.4358,0.4348,0.4347,0.4325,0.4306,0.4269,0.4266,0.426,0.4263,0.4227,0.4228,0.4229,0.426,0.4264,0.4268,0,0,0,0,0,0,0.4503,0.4462,0.4449,0.4438,0.4418,0.4382,0.438,0.4363,0.4344,0.4342,0.4311,0.4304,0.4293,0.4277,0.4274,0.426,0.4246,0.4246,0.4271,0.4275,0.4278,0.4282,0.4247,0,0,0,0,0,0.451,0.4496,0.4461,0.4456,0.4446,0.4415,0.4405,0.4387,0.4364,0.4355,0.4332,0.431,0.4294,0.4284,0.4266,0.4259,0.4251,0.4259,0.4262,0.4265,0.4265,0.426,0.4262,0.4233,0.4233,0.4233,0,0,0.4524,0.45,0.4493,0.4462,0.4444,0.4431,0.4408,0.4395,0.4385,0.4353,0.4339,0.4321,0.4295,0.4285,0.4279,0.4271,0.4271,0.4266,0.4268,0.4267,0.4261,0.4264,0.4266,0.4234,0.4234,0.4234,0,0,0.4543,0.4523,0.4516,0.4499,0.4471,0.4451,0.4449,0.4417,0.4404,0.4389,0.4365,0.4352,0.4325,0.4307,0.4294,0.4307,0.4289,0.4302,0.4319,0.4314,0.4316,0.4318,0.4322,0.4324,0.4303,0.4303,0.4303,0,0.4564,0.4543,0.4515,0.4504,0.4491,0.4461,0.4454,0.4438,0.4407,0.4398,0.439,0.4354,0.4335,0.432,0.4323,0.4314,0.4311,0.4306,0.4318,0.432,0.4321,0.4325,0.4327,0.4305,0.4304,0.4304,0.4304,0,0.457,0.4556,0.4554,0.4524,0.4511,0.4502,0.4472,0.4462,0.4445,0.4426,0.4411,0.4387,0.4364,0.4359,0.4343,0.4342,0.4338,0.4324,0.4309,0.4326,0.4329,0.433,0.4307,0.4307,0.4306,0.4306,0,0,0.461,0.4565,0.4565,0.4551,0.4519,0.4507,0.4497,0.4474,0.4466,0.4446,0.4436,0.4413,0.4401,0.4386,0.4368,0.4364,0.4375,0.435,0.4349,0.4355,0.4372,0.4382,0.4384,0.4363,0.4363,0.4363,0.4374,0,0.4624,0.4603,0.4578,0.4566,0.4552,0.4524,0.4515,0.4494,0.4476,0.4462,0.4442,0.4426,0.441,0.4402,0.4396,0.4375,0.4378,0.4373,0.4353,0.4353,0.436,0.4386,0.4396,0.4408,0.4375,0.4375,0.4376,0,0.4637,0.4618,0.4604,0.4573,0.4566,0.4559,0.4536,0.4523,0.4499,0.4486,0.447,0.445,0.4437,0.4424,0.4406,0.4404,0.4395,0.4383,0.4382,0.4379,0.4365,0.4383,0.4411,0.4413,0.4377,0.4377,0.4377,0,0.4667,0.4638,0.4626,0.4615,0.4579,0.4574,0.4558,0.4534,0.4522,0.4502,0.4494,0.4474,0.4462,0.4447,0.4422,0.4414,0.4406,0.4391,0.4395,0.4396,0.4394,0.4395,0.4421,0.4389,0.4389,0.4389,0.4389,0,0.4685,0.4678,0.4639,0.4632,0.4623,0.4594,0.4586,0.4568,0.4547,0.4535,0.451,0.45,0.4467,0.4453,0.4434,0.4422,0.4417,0.4406,0.4401,0.4408,0.4409,0.4401,0.4399,0.4389,0.4389,0.4389,0.4389,0,0.4717,0.4691,0.4676,0.4643,0.4634,0.4629,0.46,0.4592,0.4572,0.4558,0.4553,0.4522,0.4505,0.4478,0.4452,0.4439,0.443,0.4422,0.4438,0.4435,0.444,0.444,0.4461,0.4463,0.4431,0.4431,0.4432,0,0.473,0.4724,0.469,0.468,0.4666,0.4651,0.4639,0.461,0.4599,0.4571,0.4566,0.4546,0.4529,0.4502,0.4477,0.4457,0.4448,0.4457,0.4445,0.4452,0.4448,0.4448,0.4447,0.446,0.446,0.4461,0.4461,0,0.4756,0.4743,0.4726,0.4705,0.4691,0.4673,0.4654,0.4648,0.4615,0.4604,0.4585,0.4572,0.4545,0.4526,0.4503,0.4487,0.4468,0.4465,0.4465,0.4472,0.4481,0.4476,0.4446,0.4464,0.4464,0.4464,0.4464,0.4464,0.4778,0.4771,0.4746,0.4728,0.4711,0.4694,0.4684,0.4663,0.4647,0.4623,0.4608,0.459,0.4566,0.4533,0.4518,0.4504,0.4496,0.4496,0.4495,0.4496,0.4498,0.4484,0.45,0.4499,0.4499,0.4499,0.4499,0,0.4802,0.4785,0.4769,0.4742,0.4728,0.4712,0.469,0.468,0.4664,0.4644,0.4627,0.4606,0.4587,0.4561,0.454,0.4533,0.4524,0.4529,0.4529,0.4525,0.4507,0.4509,0.4537,0.4537,0.4537,0.4536,0.4536,0.4536,0.4813,0.48,0.4785,0.4763,0.4745,0.4728,0.4716,0.47,0.4683,0.4661,0.4645,0.4628,0.4605,0.4582,0.4564,0.4557,0.455,0.4557,0.4547,0.453,0.4527,0.4523,0.4525,0.4556,0.4556,0.4567,0.4567,0.4567]},{"header":{"parameterUnit":"m.s-1","parameterCategory":1,"la1":30.2991,"la2":30.254,"lo1":-89.0895,"lo2":-89.0444,"dy":0.0017,"dx":0.0017,"nx":28,"ny":28,"refTime":"2025-07-23T03:00:00:Z","depth":0,"parameterNumber":3,"parameterNumberName":"V-component_of_WINDS"},"data":[0,0,0,0,0,0,0,0,0,0,0,0,0,0,0,0,0,0,0,0,0,0,0,0,0,0,0,0,0,0,0,0,0,0,0,0,0,0,0,0,0,0,0,0,0,0,0,0,0,0,0,0,0,0,0,0,0,0,-3.118,-3.118,0,-3.1127,-3.1126,-3.1126,-3.1101,-3.1101,-3.1101,-3.1101,-3.1039,-3.1037,-3.1036,0,0,0,0,0,0,0,0,0,0,0,0,0,-3.1253,-3.1252,-3.118,-3.1179,-3.1179,-3.1127,-3.1126,-3.1126,-3.1101,-3.1101,-3.1101,-3.1101,-3.104,-3.1038,-3.1036,0,0,0,0,0,0,0,0,0,0,0,0,0,-3.1213,-3.1252,-3.118,-3.1161,-3.1158,-3.1127,-3.1126,-3.1125,-3.1101,-3.1101,-3.1101,-3.1101,-3.104,-3.1038,-3.1035,-3.1018,0,0,-3.1027,-3.1026,0,0,0,0,0,0,0,0,-3.1215,-3.121,-3.1164,-3.1162,-3.1159,-3.1121,-3.1129,-3.1089,-3.1101,-3.1123,-3.1101,-3.1101,-3.1066,-3.1061,-3.1051,-3.1015,-3.1012,-3.1027,-3.1026,-3.1025,-3.1024,0,0,0,0,0,0,0,-3.1218,-3.1212,-3.1159,-3.1163,-3.116,-3.1152,-3.1146,-3.1122,-3.1094,-3.1121,-3.1119,-3.1113,-3.1064,-3.1053,-3.1049,-3.1011,-3.1027,-3.1025,-3.1023,-3.1022,-3.0957,-3.0957,0,0,0,0,0,0,-3.1225,-3.1215,-3.1161,-3.1157,-3.1188,-3.1151,-3.1144,-3.1133,-3.1094,-3.1089,-3.1113,-3.1112,-3.1058,-3.1052,-3.1047,-3.1024,-3.1025,-3.1022,-3.1021,-3.0958,-3.0957,-3.0957,0,0,0,0,0,0,-3.1227,-3.122,-3.1163,-3.1186,-3.1178,-3.1149,-3.1137,-3.1132,-3.1121,-3.1089,-3.1083,-3.1107,-3.1057,-3.105,-3.1026,-3.1021,-3.1021,-3.1019,-3.0958,-3.0957,-3.0957,-3.0977,0,0,0,0,0,0,-3.1229,-3.1221,-3.1216,-3.1186,-3.1177,-3.1145,-3.1136,-3.1131,-3.1117,-3.1116,-3.1082,-3.1076,-3.1057,-3.103,-3.1023,-3.1018,-3.1017,-3.0958,-3.0958,-3.0957,-3.0977,-3.0978,-3.0978,0,0,0,0,0,-3.1232,-3.1222,-3.1216,-3.1209,-3.117,-3.1145,-3.1139,-3.1119,-3.1117,-3.111,-3.109,-3.1077,-3.1023,-3.1027,-3.102,-3.1013,-3.0958,-3.0958,-3.0957,-3.0976,-3.0977,-3.0978,0,0,0,0,0,0,-3.1249,-3.1218,-3.121,-3.1191,-3.1171,-3.1141,-3.1132,-3.1121,-3.1099,-3.1098,-3.1072,-3.1065,-3.1042,-3.1025,-3.1031,-3.0994,-3.0989,-3.0987,-3.1006,-3.1007,-3.1008,-3.1012,-3.1015,0,0,0,0,0,-3.1252,-3.1236,-3.1208,-3.1194,-3.1184,-3.116,-3.1148,-3.1135,-3.1112,-3.1103,-3.108,-3.1056,-3.1034,-3.1019,-3.0997,-3.0974,-3.0966,-3.0966,-3.0967,-3.0967,-3.0966,-3.0952,-3.0952,-3.0956,-3.0956,-3.0956,0,0,-3.1255,-3.1236,-3.1227,-3.1197,-3.118,-3.1162,-3.1153,-3.1134,-3.1121,-3.1099,-3.1075,-3.1058,-3.1029,-3.1006,-3.0994,-3.099,-3.0963,-3.0967,-3.0968,-3.0966,-3.0952,-3.0951,-3.0951,-3.0955,-3.0955,-3.0955,0,0,-3.1253,-3.1237,-3.1223,-3.1207,-3.1182,-3.1166,-3.1163,-3.1134,-3.1123,-3.1099,-3.1082,-3.1064,-3.1026,-3.1006,-3.0991,-3.0982,-3.0969,-3.0975,-3.0979,-3.0966,-3.0966,-3.0965,-3.0962,-3.0961,-3.0974,-3.0974,-3.0974,0,-3.1259,-3.1235,-3.1217,-3.1201,-3.1187,-3.1169,-3.1154,-3.1138,-3.1106,-3.1097,-3.1094,-3.1046,-3.1026,-3.0997,-3.0995,-3.0984,-3.0978,-3.0979,-3.0968,-3.0967,-3.0966,-3.0963,-3.0961,-3.0975,-3.0975,-3.0975,-3.0974,0,-3.1244,-3.1227,-3.1219,-3.1192,-3.1177,-3.1162,-3.1139,-3.1126,-3.1115,-3.1098,-3.1073,-3.1048,-3.102,-3.1013,-3.0999,-3.0982,-3.0981,-3.0973,-3.0968,-3.0967,-3.0963,-3.0962,-3.0976,-3.0976,-3.0975,-3.0975,0,0,-3.1251,-3.1215,-3.1213,-3.12,-3.1172,-3.1157,-3.114,-3.1115,-3.1105,-3.1083,-3.1067,-3.1035,-3.1029,-3.1012,-3.0996,-3.0985,-3.0979,-3.0978,-3.0977,-3.0979,-3.0957,-3.0963,-3.0962,-3.097,-3.097,-3.097,-3.0959,0,-3.1245,-3.1216,-3.12,-3.1177,-3.116,-3.1143,-3.1128,-3.1108,-3.1092,-3.1073,-3.1054,-3.1033,-3.1026,-3.1015,-3.1004,-3.0982,-3.0974,-3.0983,-3.0953,-3.0952,-3.0961,-3.096,-3.0966,-3.0958,-3.0958,-3.0957,-3.0957,0,-3.1233,-3.1215,-3.1192,-3.1166,-3.1158,-3.1145,-3.1122,-3.1105,-3.1081,-3.107,-3.1052,-3.1037,-3.1016,-3.1012,-3.0982,-3.0988,-3.0975,-3.0962,-3.0961,-3.0958,-3.0955,-3.0956,-3.0955,-3.0953,-3.0955,-3.0955,-3.0955,0,-3.1241,-3.121,-3.1192,-3.1182,-3.1151,-3.1142,-3.1129,-3.1105,-3.1091,-3.107,-3.106,-3.1035,-3.1021,-3.1001,-3.0979,-3.0979,-3.095,-3.0945,-3.0939,-3.094,-3.0934,-3.0934,-3.093,-3.0925,-3.0926,-3.0926,-3.0926,0,-3.1236,-3.1222,-3.1196,-3.1185,-3.1168,-3.1148,-3.1131,-3.1116,-3.1095,-3.1079,-3.1061,-3.1046,-3.1018,-3.0998,-3.098,-3.0957,-3.0951,-3.094,-3.0935,-3.0942,-3.0943,-3.0932,-3.0932,-3.0925,-3.0925,-3.0925,-3.0925,0,-3.1241,-3.1223,-3.1203,-3.1176,-3.1169,-3.1158,-3.1134,-3.1121,-3.1105,-3.1084,-3.1078,-3.1051,-3.1027,-3.1004,-3.097,-3.0958,-3.0936,-3.0929,-3.0945,-3.0942,-3.0938,-3.0938,-3.0926,-3.0923,-3.0921,-3.0921,-3.0921,0,-3.1239,-3.1229,-3.1202,-3.1191,-3.1179,-3.1161,-3.1148,-3.1127,-3.1114,-3.1086,-3.1076,-3.1052,-3.1031,-3.0994,-3.0969,-3.0944,-3.0936,-3.0934,-3.0932,-3.0939,-3.0936,-3.0937,-3.0936,-3.0935,-3.0935,-3.0935,-3.0935,0,-3.1237,-3.1229,-3.1212,-3.1193,-3.1178,-3.116,-3.1142,-3.1133,-3.1109,-3.1094,-3.1071,-3.1056,-3.1023,-3.0998,-3.097,-3.0953,-3.0939,-3.0936,-3.0933,-3.0939,-3.0949,-3.0944,-3.0947,-3.0936,-3.0936,-3.0936,-3.0936,-3.0936,-3.1239,-3.1229,-3.1209,-3.119,-3.1175,-3.1158,-3.1145,-3.1128,-3.111,-3.1084,-3.1072,-3.1049,-3.1024,-3.0985,-3.0968,-3.0948,-3.0944,-3.094,-3.0939,-3.0938,-3.094,-3.0953,-3.0942,-3.0942,-3.0942,-3.0942,-3.0942,0,-3.1236,-3.1223,-3.1206,-3.1182,-3.1167,-3.1159,-3.1138,-3.1125,-3.1106,-3.1085,-3.1066,-3.1039,-3.1016,-3.099,-3.0964,-3.0953,-3.0946,-3.0946,-3.0947,-3.0943,-3.0945,-3.095,-3.0953,-3.0953,-3.0953,-3.0953,-3.0953,-3.0953,-3.1233,-3.1216,-3.1205,-3.1179,-3.1165,-3.1144,-3.1133,-3.1117,-3.1101,-3.1073,-3.1054,-3.1038,-3.1015,-3.0987,-3.0964,-3.0957,-3.0948,-3.0951,-3.0942,-3.0943,-3.0943,-3.0942,-3.0947,-3.0949,-3.0949,-3.0941,-3.0941,-3.0941]}]]